Voltar ao catálogo

FUCHENG-1

AtivoCiênciaSSO
NORAD 56846·PAYLOAD·🇨🇳 China
Este nome de satélite ainda não foi confirmado por fontes oficiais.

Lançado Jun 7, 2023 de Jiuquan Satellite Launch Center

Loading…

Próximas Passagens (próximas 24 horas)

TLE

AtualizadoSource: Space-Track

Época: Sep 14, 2026, 14:58 UTC

1 56846U 23081A   26257.62396897  .00006056  00000-0  25033-3 0  9998
2 56846  97.3616 326.1320 0001132 113.5257 246.6099 15.24348069181638

Acompanhe FUCHENG-1 em tempo real com AllMySat

Download on the App Store